Regional Weather Roundup
Issued by NWS Charleston, WV

Home | Current Version | Previous Version | Graphics & Text | Print | Product List | Glossary On
Versions: 1 2 3 4 5 6 7 8 9 10 11 12 13 14 15 16 17 18 19 20 21 22 23 24 25 26 27 28 29 30 31 32 33 34 35 36 37 38 39 40 41 42 43 44 45 46 47 48 49 50
276
ASUS41 KRLX 280610
RWRRLX
West Virginia Regional Weather Roundup
National Weather Service Charleston WV
200 AM EDT SAT MAY 28 2016

Note: "fair" indicates few or no clouds below 12,000 feet with no
significant weather and/or obstructions to visibility.

WVZ003-280700-
Northern Panhandle of West Virginia

CITY           SKY/WX    TMP DP  RH WIND       PRES   REMARKS
WHEELING         N/A     73  62  68 S6        30.08S
$$

WVZ009-280700-
Northwest West Virginia

CITY           SKY/WX    TMP DP  RH WIND       PRES   REMARKS
PARKERSBURG      N/A     67  65  93 CALM      30.10R FOG
$$

WVZ006-280700-
Western West Virginia

CITY           SKY/WX    TMP DP  RH WIND       PRES   REMARKS
HUNTINGTON       N/A     70  65  84 E3        30.06S
$$

WVZ015-280700-
West Central West Virginia

CITY           SKY/WX    TMP DP  RH WIND       PRES   REMARKS
CHARLESTON       N/A     68  63  84 CALM      30.09R
$$

WVZ022-031-280700-
North Central West Virginia

CITY           SKY/WX    TMP DP  RH WIND       PRES   REMARKS
CLARKSBURG       N/A     65  63  93 CALM      30.09F
MORGANTOWN       N/A     68  59  73 CALM      30.10S
$$

WVZ025-035-042-045-280700-
Southern West Virginia

CITY           SKY/WX    TMP DP  RH WIND       PRES   REMARKS
BECKLEY          N/A     67  60  78 SE7       30.18S
LOGAN            N/A     70  64  83 CALM      30.11F
BLUEFIELD        N/A     66  59  78 S5        30.21S
LEWISBURG        N/A     61  60  97 CALM      30.19S
$$

WVZ047-280700-
Northern Mountains of West Virginia

CITY           SKY/WX    TMP DP  RH WIND       PRES   REMARKS
ELKINS           N/A     59  56  89 CALM      30.16F
$$

WVZ052-280700-
Eastern Panhandle of West Virginia

CITY           SKY/WX    TMP DP  RH WIND       PRES   REMARKS
MARTINSBURG      N/A     70  65  84 CALM      30.09R
PETERSBURG     FOG       66  66  99 CALM      30.13R VSB 1/4
$$




USA.gov is the U.S. government's official web portal to all federal, state and local government web resources and services.